Location: Observatory
(52.1446°N, 0.4624°W)
Time: 22:59:17
(UTC+01:00)

X-37B - Visible Passes

Search period start: 20 September 2020 00:00
Search period end: 30 September 2020 00:00
Orbit: 386 x 387 km, 45.0° (Epoch: 18 September)

Date Brightness Start Highest point End Pass type
(mag) Time Alt. Az. Time Alt. Az. Time Alt. Az.
20 Sep 3.6 04:05:33 11° ESE 04:05:33 11° ESE 04:05:44 10° ESE visible
20 Sep 2.4 05:37:50 15° SW 05:39:13 19° SSW 05:41:34 10° SE visible
21 Sep 2.7 04:42:02 18° SSE 04:42:02 18° SSE 04:43:22 10° SE visible
22 Sep 2.6 05:18:37 15° SSW 05:18:37 15° SSW 05:20:26 10° SSE visible
